2022-090A (53346 NORAD) Tracking and Keplerian Element Data

This shows tracking and keplerian element data for the satellite.

Feedback or suggestion? Click here.




ElementValue
Catalog53346
Name2022-090A
Epoch Orbit822
Epoch Day270.18012975
Epoch Year2022
RAAN342.5929
Inclination97.4676
Eccentricity0.0008273
Argument of Perigee70.0925
Mean Anonmoly14.4889
Mean Motion15.21067888
Decay Rate3.129E-05
L11 53346U 22090A 22270.18012975 .00003129 00000+0 14386-3 0 9999
L22 53346 97.4676 342.5929 0008273 70.0925 14.4889 15.21067888 8221

Live tracking and technical data element details for 2022-090A (NORAD 53346). 2022-090A can be tracked NOW for your location showing map with azimuth and elevation plus other details from your city location.

Track the satellite on the map from your city or location and see movement details for azimuth, elevation, latitude, longitude, range, height, and movement on the map or in text.







IsCatalogInMostPopularTable: catalog: 53346, numindb: 3
Update: records affected: 1



GetName: 53346 2022-090A

Hit Count: updated at: Fri, 30 Sep 2022 03:15:22 GMT